FW7504 Weather Reports


time (UTC)temp
C
wind
direction
speed
KPH
gust
KPH
rain 1hr
cm
rain 24hr
cm
rain mn
cm
humidity
%
barometer
mb
20260902165553 32 360 1.6 8.0 0.00 0.00 0.00 62 1020.9
20260902165054 32 360 1.6 8.0 0.00 0.00 0.00 63 1021.0
20260902164606 32 360 1.6 8.0 0.00 0.00 0.00 64 1021.1
20260902164054 32 360 1.6 8.0 0.00 0.00 0.00 65 1021.3
20260902163554 31 0 0.0 8.0 0.00 0.00 0.00 64 1021.3
20260902163105 31 360 1.6 4.8 0.00 0.00 0.00 65 1021.5
20260902162553 31 360 1.6 4.8 0.00 0.00 0.00 65 1021.5
20260902162055 31 360 0.0 9.7 0.00 0.00 0.00 66 1021.6
20260902161602 31 0 3.2 9.7 0.00 0.00 0.00 65 1021.6
20260902161053 31 360 1.6 6.4 0.00 0.00 0.00 67 1021.5
20260902160554 31 360 1.6 6.4 0.00 0.00 0.00 67 1021.5
20260902160113 31 360 1.6 6.4 0.00 0.00 0.00 69 1021.6
20260902155554 31 360 0.0 6.4 0.00 0.00 0.00 69 1021.7
20260902155055 31 360 0.0 6.4 0.00 0.00 0.00 68 1021.7
20260902154609 31 0 0.0 6.4 0.00 0.00 0.00 70 1021.7
20260902154055 31 360 1.6 8.0 0.00 0.00 0.00 69 1021.7
20260902153553 31 0 0.0 8.0 0.00 0.00 0.00 70 1021.7
20260902153104 30 360 1.6 6.4 0.00 0.00 0.00 70 1021.7
20260902152555 30 0 0.0 3.2 0.00 0.00 0.00 71 1021.9
20260902152057 30 0 1.6 6.4 0.00 0.00 0.00 71 1021.9
20260902151605 30 360 1.6 6.4 0.00 0.00 0.00 71 1021.7
20260902151055 30 360 0.0 4.8 0.00 0.00 0.00 72 1021.7
20260902150553 29 0 0.0 4.8 0.00 0.00 0.00 72 1021.7
20260902150105 29 360 1.6 4.8 0.00 0.00 0.00 72 1021.7
20260902145554 29 360 0.0 3.2 0.00 0.00 0.00 74 1021.7
20260902145053 29 0 0.0 3.2 0.00 0.00 0.00 74 1021.8
20260902144604 29 0 0.0 1.6 0.00 0.00 0.00 74 1021.8
20260902144053 29 0 0.0 3.2 0.00 0.00 0.00 75 1021.8
20260902143552 29 0 0.0 4.8 0.00 0.00 0.00 75 1021.7
20260902143105 29 0 0.0 4.8 0.00 0.00 0.00 75 1021.8
20260902142550 29 0 1.6 4.8 0.00 0.00 0.00 76 1021.7
20260902142052 29 0 0.0 4.8 0.00 0.00 0.00 76 1021.7
20260902141604 29 0 0.0 6.4 0.00 0.00 0.00 76 1021.7
20260902141054 28 360 3.2 6.4 0.00 0.00 0.00 76 1021.8
20260902140549 28 360 0.0 3.2 0.00 0.00 0.00 78 1021.7
20260902140106 28 360 0.0 6.4 0.00 0.00 0.00 79 1021.8
20260902135550 27 0 1.6 6.4 0.00 0.00 0.00 81 1021.7
20260902135048 27 360 0.0 6.4 0.00 0.00 0.00 82 1021.8
20260902134608 27 0 0.0 4.8 0.00 0.00 0.00 83 1021.7
20260902134052 26 360 0.0 4.8 0.00 0.00 0.00 84 1021.8
20260902133551 26 360 0.0 4.8 0.00 0.00 0.00 85 1021.7
20260902133108 26 360 0.0 4.8 0.00 0.00 0.00 86 1021.8
20260902132552 26 360 0.0 1.6 0.00 0.00 0.00 87 1021.7
20260902132051 25 0 0.0 0.0 0.00 0.00 0.00 88 1021.8
20260902131607 25 0 0.0 0.0 0.00 0.00 0.00 88 1021.7
20260902131051 25 0 0.0 1.6 0.00 0.00 0.00 89 1021.8
20260902130552 24 0 0.0 1.6 0.00 0.00 0.00 89 1021.8
20260902130106 24 0 0.0 3.2 0.00 0.00 0.00 90 1021.7
20260902125552 23 0 0.0 3.2 0.00 0.00 0.00 91 1021.6
20260902125051 23 0 0.0 1.6 0.00 0.00 0.00 91 1021.6
20260902124602 23 0 0.0 1.6 0.00 0.00 0.00 91 1021.7
20260902124049 23 0 0.0 1.6 0.00 0.00 0.00 91 1021.8
20260902123551 23 0 0.0 1.6 0.00 0.00 0.00 92 1021.6
20260902123106 23 0 0.0 0.0 0.00 0.00 0.00 92 1021.6
20260902122549 22 0 0.0 0.0 0.00 0.00 0.00 92 1021.7
20260902122052 22 0 0.0 0.0 0.00 0.00 0.00 92 1021.6
20260902121605 22 0 0.0 0.0 0.00 0.00 0.00 92 1021.5
20260902121050 22 0 0.0 0.0 0.00 0.00 0.00 92 1021.5
20260902120551 22 0 0.0 0.0 0.00 0.00 0.00 92 1021.4
20260902120112 22 0 0.0 0.0 0.00 0.00 0.00 92 1021.4
20260902115548 22 0 0.0 0.0 0.00 0.00 0.00 92 1021.1
20260902115051 22 0 0.0 0.0 0.00 0.00 0.00 91 1021.0
20260902114606 22 0 0.0 0.0 0.00 0.00 0.00 91 1021.0
20260902114051 22 0 0.0 0.0 0.00 0.00 0.00 91 1020.9
20260902113548 22 0 0.0 0.0 0.00 0.00 0.00 91 1020.9
20260902113105 22 0 0.0 0.0 0.00 0.00 0.00 91 1020.8
20260902112639 22 0 0.0 0.0 0.00 0.00 0.00 91 1020.9
20260902112051 22 0 0.0 0.0 0.00 0.00 0.00 91 1020.9
20260902111609 22 0 0.0 0.0 0.00 0.00 0.00 91 1020.9
20260902111048 22 0 0.0 0.0 0.00 0.00 0.00 91 1020.7
20260902110548 22 0 0.0 0.0 0.00 0.00 0.00 91 1020.7
20260902110100 22 0 0.0 0.0 0.00 0.00 0.00 91 1020.7
20260902105552 22 0 0.0 0.0 0.00 0.00 0.00 91 1020.6
20260902105051 22 0 0.0 0.0 0.00 0.00 0.00 91 1020.5
20260902104614 22 0 0.0 0.0 0.00 0.00 0.00 91 1020.5
20260902104051 22 0 0.0 0.0 0.00 0.00 0.00 90 1020.5
20260902103551 22 0 0.0 0.0 0.00 0.00 0.00 90 1020.6
20260902103105 22 0 0.0 0.0 0.00 0.00 0.00 90 1020.5
20260902102551 22 0 0.0 0.0 0.00 0.00 0.00 90 1020.4
20260902102048 22 0 0.0 0.0 0.00 0.00 0.00 90 1020.4
20260902101603 22 0 0.0 0.0 0.00 0.00 0.00 91 1020.4
20260902101051 22 0 0.0 0.0 0.00 0.00 0.00 90 1020.3
20260902100549 22 0 0.0 0.0 0.00 0.00 0.00 90 1020.3
20260902095551 22 0 0.0 0.0 0.00 0.00 0.00 90 1020.4
20260902095048 22 0 0.0 0.0 0.00 0.00 0.00 90 1020.3
20260902094601 22 0 0.0 0.0 0.00 0.00 0.00 90 1020.2
20260902094052 22 0 0.0 0.0 0.00 0.00 0.00 89 1020.2
20260902093550 22 0 0.0 0.0 0.00 0.00 0.00 89 1020.1
20260902093106 22 0 0.0 0.0 0.00 0.00 0.00 89 1020.2
20260902092551 22 0 0.0 0.0 0.00 0.00 0.00 89 1020.1
20260902092053 22 0 0.0 0.0 0.00 0.00 0.00 89 1020.0
20260902091601 23 0 0.0 0.0 0.00 0.00 0.00 89 1020.1
20260902091053 23 0 0.0 0.0 0.00 0.00 0.00 89 1020.1
20260902090549 23 0 0.0 0.0 0.00 0.00 0.00 89 1020.1
20260902090116 23 0 0.0 0.0 0.00 0.00 0.00 89 1020.0
20260902085551 23 0 0.0 0.0 0.00 0.00 0.00 89 1019.9
20260902085048 23 0 0.0 0.0 0.00 0.00 0.00 89 1020.0
20260902084606 23 0 0.0 0.0 0.00 0.00 0.00 88 1019.9
20260902084051 23 0 0.0 0.0 0.00 0.00 0.00 88 1019.9
20260902083551 23 0 0.0 0.0 0.00 0.00 0.00 89 1019.7
20260902083106 23 0 0.0 0.0 0.00 0.00 0.00 88 1019.7
20260902082555 23 0 0.0 0.0 0.00 0.00 0.00 88 1019.8
20260902082048 23 0 0.0 0.0 0.00 0.00 0.00 88 1019.6
20260902081601 23 0 0.0 0.0 0.00 0.00 0.00 88 1019.7
20260902081055 23 0 0.0 0.0 0.00 0.00 0.00 88 1019.6
20260902080553 23 0 0.0 0.0 0.00 0.00 0.00 88 1019.6
20260902075553 23 0 0.0 0.0 0.00 0.00 0.00 87 1019.6
20260902075053 23 0 0.0 0.0 0.00 0.00 0.00 87 1019.5
20260902074612 23 0 0.0 0.0 0.00 0.00 0.00 87 1019.5
20260902074053 23 0 0.0 0.0 0.00 0.00 0.00 87 1019.5
20260902073553 23 0 0.0 0.0 0.00 0.00 0.00 87 1019.6
20260902073103 23 0 0.0 0.0 0.00 0.00 0.00 87 1019.6
20260902072552 23 0 0.0 0.0 0.00 0.00 0.00 87 1019.6
20260902072053 23 0 0.0 1.6 0.00 0.00 0.00 87 1019.6
20260902071610 23 0 0.0 1.6 0.00 0.00 0.00 87 1019.8
20260902071053 23 0 0.0 0.0 0.00 0.00 0.00 86 1019.9
20260902070553 23 0 0.0 0.0 0.00 0.00 0.00 86 1019.8
20260902070103 23 0 0.0 0.0 0.00 0.00 0.00 87 1019.8
20260902065555 23 0 0.0 0.0 0.00 0.00 0.00 86 1019.8
20260902065053 23 0 0.0 0.0 0.00 0.00 0.00 86 1019.8
20260902064604 23 0 0.0 0.0 0.00 0.00 0.00 86 1019.8
20260902064053 23 0 0.0 0.0 0.00 0.00 0.00 86 1019.8
20260902063553 23 0 0.0 0.0 0.00 0.00 0.00 86 1019.8
20260902063101 23 0 0.0 0.0 0.00 0.00 0.00 86 1019.9
20260902062553 24 0 0.0 1.6 0.00 0.00 0.00 85 1019.8
20260902062055 24 0 0.0 1.6 0.00 0.00 0.00 85 1019.7
20260902061056 24 0 0.0 0.0 0.00 0.00 0.00 85 1019.8
20260902060554 24 0 0.0 0.0 0.00 0.00 0.00 85 1019.9
20260902060110 24 0 0.0 0.0 0.00 0.00 0.00 85 1019.9
20260902055553 24 0 0.0 0.0 0.00 0.00 0.00 84 1019.8
20260902055053 24 0 0.0 0.0 0.00 0.00 0.00 85 1019.8
20260902054613 24 0 0.0 0.0 0.00 0.00 0.00 85 1019.9
20260902054052 24 0 0.0 0.0 0.00 0.00 0.00 84 1019.9
20260902053553 24 0 0.0 0.0 0.00 0.00 0.00 84 1019.9
20260902053107 24 0 0.0 0.0 0.00 0.00 0.00 84 1020.0
20260902052553 25 0 0.0 0.0 0.00 0.00 0.00 84 1019.9
20260902052052 25 0 0.0 0.0 0.00 0.00 0.00 84 1019.9
20260902051601 25 0 0.0 0.0 0.00 0.00 0.00 84 1019.9
20260902051053 25 0 0.0 0.0 0.00 0.00 0.00 84 1019.9
20260902050553 25 0 0.0 0.0 0.00 0.00 0.00 83 1019.9
20260902050107 25 0 0.0 0.0 0.00 0.00 0.00 83 1019.9
20260902045553 25 0 0.0 0.0 0.00 0.00 0.00 83 1019.9
20260902045053 25 0 0.0 0.0 0.00 0.00 0.00 83 1019.8
20260902044602 25 0 0.0 0.0 0.00 0.00 0.00 83 1019.8
20260902044053 25 0 0.0 0.0 0.00 0.00 0.00 82 1019.9
20260902043552 25 0 0.0 0.0 0.00 0.00 0.00 82 1019.9
20260902043109 25 0 0.0 0.0 0.00 0.00 0.00 82 1019.8
20260902042552 25 0 0.0 0.0 0.00 0.00 0.00 82 1019.9
20260902042053 25 0 0.0 0.0 0.00 0.00 0.00 82 1019.9
20260902041604 25 0 0.0 0.0 0.00 0.00 0.00 81 1019.8
20260902041052 25 0 0.0 0.0 0.00 0.00 0.00 81 1019.8
20260902040553 25 0 0.0 0.0 0.00 0.00 0.00 81 1019.9
20260902040109 26 0 0.0 0.0 0.00 0.00 0.00 80 1020.0
20260902035552 26 0 0.0 0.0 0.00 0.00 0.00 80 1019.9
20260902035053 26 0 0.0 0.0 0.00 0.00 0.00 80 1019.9
20260902034601 26 0 0.0 0.0 0.00 0.00 0.00 79 1019.8
20260902034053 26 0 0.0 0.0 0.00 0.00 0.00 79 1020.0
20260902033552 26 0 0.0 0.0 0.00 0.00 0.00 79 1019.8
20260902033101 26 0 0.0 0.0 0.00 0.00 0.00 79 1019.9
20260902032553 26 0 0.0 0.0 0.00 0.00 0.00 79 1020.1
20260902032052 26 0 0.0 0.0 0.00 0.00 0.00 79 1020.0
20260902031559 26 0 0.0 0.0 0.00 0.00 0.00 79 1020.0
20260902031053 26 0 0.0 0.0 0.00 0.00 0.00 78 1020.0
20260902030554 26 0 0.0 0.0 0.00 0.00 0.00 78 1020.0
20260902025553 27 0 0.0 0.0 0.00 0.00 0.00 78 1019.9
20260902025054 27 0 0.0 0.0 0.00 0.00 0.00 78 1019.9
20260902024558 27 0 0.0 0.0 0.00 0.00 0.00 78 1020.0
20260902024053 27 0 0.0 0.0 0.00 0.00 0.00 77 1019.9
20260902023552 27 0 0.0 0.0 0.00 0.00 0.00 77 1019.8
20260902023109 27 0 0.0 0.0 0.00 0.00 0.00 76 1019.8
20260902022553 27 0 0.0 0.0 0.00 0.00 0.00 76 1019.9
20260902022053 27 0 0.0 0.0 0.00 0.00 0.00 76 1019.8
20260902021603 27 0 0.0 0.0 0.00 0.00 0.00 76 1019.7
20260902021052 27 0 0.0 0.0 0.00 0.00 0.00 75 1019.7
20260902020553 27 0 0.0 0.0 0.00 0.00 0.00 75 1019.7
20260902020100 27 0 0.0 0.0 0.00 0.00 0.00 75 1019.7
20260902015553 28 0 0.0 0.0 0.00 0.00 0.00 74 1019.7
20260902015052 28 0 0.0 0.0 0.00 0.00 0.00 74 1019.6
20260902014603 28 0 0.0 0.0 0.00 0.00 0.00 73 1019.6
20260902014053 28 0 0.0 0.0 0.00 0.00 0.00 73 1019.5
20260902013556 28 0 0.0 0.0 0.00 0.00 0.00 72 1019.5
20260902013103 28 0 0.0 0.0 0.00 0.00 0.00 72 1019.3
20260902012552 28 0 0.0 0.0 0.00 0.00 0.00 72 1019.2
20260902012053 28 0 0.0 0.0 0.00 0.00 0.00 72 1019.3
20260902011608 28 0 0.0 0.0 0.00 0.00 0.00 71 1019.3
20260902011053 29 0 0.0 0.0 0.00 0.00 0.00 70 1019.3
20260902010553 29 0 0.0 0.0 0.00 0.00 0.00 69 1019.3
20260902010117 29 0 0.0 0.0 0.00 0.00 0.00 69 1019.2
20260902005552 29 0 0.0 0.0 0.00 0.00 0.00 69 1019.1
20260902005054 30 0 0.0 0.0 0.00 0.00 0.00 68 1019.1
20260902004607 30 0 0.0 0.0 0.00 0.00 0.00 68 1019.1
20260902004053 30 0 0.0 0.0 0.00 0.00 0.00 67 1019.2
20260902003553 30 0 0.0 0.0 0.00 0.00 0.00 67 1019.1
20260902003105 30 0 0.0 0.0 0.00 0.00 0.00 66 1019.0
20260902002553 30 0 0.0 0.0 0.00 0.00 0.00 66 1019.1
20260902002053 31 0 0.0 0.0 0.00 0.00 0.00 65 1019.1
20260902001622 31 0 0.0 0.0 0.00 0.00 0.00 64 1019.1
20260902001055 31 0 0.0 0.0 0.00 0.00 0.00 63 1018.9
20260902000552 31 0 0.0 0.0 0.00 0.00 0.00 62 1019.1
20260902000107 32 0 0.0 0.0 0.00 0.00 0.00 61 1019.0
20260901235553 32 0 0.0 0.0 0.00 0.00 0.00 60 1019.1
20260901235053 32 0 0.0 0.0 0.00 0.00 0.00 59 1019.1
20260901234604 32 0 0.0 1.6 0.00 0.00 0.00 57 1019.1
20260901234053 32 0 0.0 3.2 0.00 0.00 0.00 56 1019.1
20260901233553 33 0 0.0 3.2 0.00 0.00 0.00 56 1019.2
20260901233102 33 0 0.0 3.2 0.00 0.00 0.00 55 1019.2
20260901232554 33 0 0.0 8.0 0.00 0.00 0.00 54 1019.3
20260901232054 33 0 0.0 8.0 0.00 0.00 0.00 54 1019.2
20260901231607 33 360 4.8 8.0 0.00 0.00 0.00 53 1019.2
20260901231052 33 360 1.6 9.7 0.00 0.00 0.00 52 1019.2
20260901230553 33 360 0.0 9.7 0.00 0.00 0.00 52 1019.2
20260901230059 33 360 3.2 9.7 0.00 0.00 0.00 52 1019.2
20260901225553 33 360 1.6 8.0 0.00 0.00 0.00 52 1019.1
20260901225052 33 360 1.6 12.9 0.00 0.00 0.00 52 1019.2
20260901224605 33 360 3.2 12.9 0.00 0.00 0.00 51 1019.2
20260901224052 33 360 1.6 9.7 0.00 0.00 0.00 52 1019.1
20260901223552 33 360 4.8 9.7 0.00 0.00 0.00 51 1019.0
20260901223102 34 0 1.6 6.4 0.00 0.00 0.00 51 1018.9
20260901222552 34 360 1.6 6.4 0.00 0.00 0.00 50 1019.0
20260901222056 34 0 1.6 8.0 0.00 0.00 0.00 50 1019.0
20260901221621 34 360 0.0 8.0 0.00 0.00 0.00 50 1019.1
20260901221053 34 360 3.2 8.0 0.00 0.00 0.00 50 1019.1
20260901220552 34 360 0.0 9.7 0.00 0.00 0.00 50 1018.8
20260901220122 34 0 0.0 9.7 0.00 0.00 0.00 49 1018.8
20260901215552 34 360 0.0 9.7 0.00 0.00 0.00 49 1018.8
20260901215052 34 0 4.8 9.7 0.00 0.00 0.00 49 1019.0
20260901214604 34 360 1.6 9.7 0.00 0.00 0.00 49 1019.0
20260901214053 34 360 1.6 9.7 0.00 0.00 0.00 49 1018.9
20260901213553 34 360 0.0 12.9 0.00 0.00 0.00 49 1019.0
20260901213107 34 0 1.6 12.9 0.00 0.00 0.00 49 1019.0
20260901212553 34 360 4.8 12.9 0.00 0.00 0.00 50 1019.1
20260901212056 34 0 0.0 6.4 0.00 0.00 0.00 50 1019.2
20260901211600 34 360 1.6 8.0 0.00 0.00 0.00 50 1019.2
20260901211052 33 0 1.6 9.7 0.00 0.00 0.00 50 1019.2
20260901210552 33 360 3.2 14.5 0.00 0.00 0.00 50 1019.2
20260901210106 33 360 4.8 14.5 0.00 0.00 0.00 51 1019.1
20260901205552 33 360 4.8 14.5 0.00 0.00 0.00 50 1019.2
20260901205056 33 360 3.2 12.9 0.00 0.00 0.00 51 1019.2
20260901204606 33 0 3.2 14.5 0.00 0.00 0.00 52 1019.3
20260901204058 33 360 4.8 14.5 0.00 0.00 0.00 52 1019.3
20260901203553 33 0 4.8 14.5 0.00 0.00 0.00 51 1019.3
20260901203103 33 0 6.4 14.5 0.00 0.00 0.00 50 1019.4
20260901202553 33 360 6.4 14.5 0.00 0.00 0.00 51 1019.5
20260901202052 33 360 1.6 8.0 0.00 0.00 0.00 52 1019.6
20260901201602 33 360 0.0 3.2 0.00 0.00 0.00 53 1019.6
20260901201052 33 0 0.0 6.4 0.00 0.00 0.00 51 1019.7
20260901200553 33 0 0.0 9.7 0.00 0.00 0.00 52 1019.8
20260901195553 33 360 4.8 9.7 0.00 0.00 0.00 52 1019.8
20260901195053 33 360 1.6 8.0 0.00 0.00 0.00 52 1019.8
20260901194601 33 0 3.2 14.5 0.00 0.00 0.00 51 1020.0
20260901194055 33 360 4.8 14.5 0.00 0.00 0.00 52 1020.0
20260901193553 33 360 3.2 12.9 0.00 0.00 0.00 53 1020.1
20260901193107 33 360 1.6 8.0 0.00 0.00 0.00 53 1020.1
20260901192556 33 360 1.6 8.0 0.00 0.00 0.00 53 1020.2
20260901192052 33 360 1.6 8.0 0.00 0.00 0.00 52 1020.3
20260901191619 33 0 3.2 9.7 0.00 0.00 0.00 52 1020.4
20260901191055 33 360 1.6 9.7 0.00 0.00 0.00 52 1020.3
20260901190554 33 360 0.0 6.4 0.00 0.00 0.00 53 1020.5
20260901190101 33 0 0.0 6.4 0.00 0.00 0.00 52 1020.4
20260901185553 33 0 1.6 14.5 0.00 0.00 0.00 51 1020.5
20260901185052 33 360 3.2 14.5 0.00 0.00 0.00 52 1020.4
20260901184602 33 360 4.8 14.5 0.00 0.00 0.00 52 1020.4
20260901184052 33 360 4.8 12.9 0.00 0.00 0.00 51 1020.5
20260901183552 33 360 3.2 9.7 0.00 0.00 0.00 50 1020.6
20260901183104 33 0 0.0 6.4 0.00 0.00 0.00 52 1020.6
20260901182554 33 360 0.0 4.8 0.00 0.00 0.00 52 1020.7
20260901182053 33 0 0.0 8.0 0.00 0.00 0.00 52 1020.8
20260901181610 33 0 1.6 12.9 0.00 0.00 0.00 50 1020.8
20260901181052 33 0 3.2 12.9 0.00 0.00 0.00 51 1020.9
20260901180553 33 360 1.6 12.9 0.00 0.00 0.00 51 1020.9
20260901175553 33 360 1.6 8.0 0.00 0.00 0.00 53 1020.9
20260901175052 33 0 1.6 8.0 0.00 0.00 0.00 54 1021.0
20260901174605 32 360 1.6 8.0 0.00 0.00 0.00 54 1021.0
20260901174052 32 360 1.6 8.0 0.00 0.00 0.00 53 1021.0
20260901173552 32 360 1.6 8.0 0.00 0.00 0.00 55 1021.1
20260901173106 32 360 1.6 8.0 0.00 0.00 0.00 55 1021.1
20260901172552 32 0 1.6 9.7 0.00 0.00 0.00 57 1021.3
20260901172054 32 360 3.2 9.7 0.00 0.00 0.00 59 1021.3
20260901171607 32 360 0.0 6.4 0.00 0.00 0.00 60 1021.4
20260901171052 32 0 1.6 6.4 0.00 0.00 0.00 59 1021.5
20260901170555 32 360 0.0 4.8 0.00 0.00 0.00 60 1021.5
20260901170109 32 0 1.6 4.8 0.00 0.00 0.00 59 1021.6